FW2944 Weather Reports


Display with metric or nautical units.
time (UTC)temp
F
wind
direction
speed
MPH
gust
MPH
rain 1hr
in
rain 24hr
in
rain mn
in
humidity
%
barometer
mb
20260906224829 64 332 10.0 11.0 0.00 0.00 0.00 71 1014.9
20260906224326 64 306 12.0 13.0 0.00 0.00 0.00 72 1014.9
20260906223822 63 329 9.0 11.0 0.00 0.00 0.00 73 1014.9
20260906223318 63 314 12.0 15.0 0.00 0.00 0.00 73 1014.9
20260906222815 63 323 13.0 14.0 0.00 0.00 0.00 72 1015.2
20260906222315 65 315 18.0 21.0 0.00 0.00 0.00 69 1015.2
20260906221813 65 296 7.0 8.0 0.00 0.00 0.00 64 1015.1
20260906221312 66 337 8.0 8.0 0.00 0.00 0.00 64 1014.8
20260906220808 66 309 8.0 9.0 0.00 0.00 0.00 64 1014.8
20260906220304 66 347 8.0 9.0 0.00 0.00 0.00 64 1014.9
20260906215802 67 289 9.0 9.0 0.00 0.00 0.00 62 1015.1
20260906215257 66 356 7.0 9.0 0.00 0.00 0.00 63 1015.1
20260906214755 67 314 4.0 5.0 0.00 0.00 0.00 63 1014.9
20260906214250 66 284 6.0 7.0 0.00 0.00 0.00 63 1014.8
20260906213749 67 297 9.0 9.0 0.00 0.00 0.00 63 1015.1
20260906213249 67 277 9.0 10.0 0.00 0.00 0.00 62 1015.1
20260906212746 66 297 6.0 7.0 0.00 0.00 0.00 64 1014.8
20260906212242 67 314 8.0 9.0 0.00 0.00 0.00 62 1015.2
20260906211742 67 282 6.0 7.0 0.00 0.00 0.00 63 1015.4
20260906211237 66 326 2.0 2.0 0.00 0.00 0.00 64 1015.2
20260906210732 65 327 6.0 7.0 0.00 0.00 0.00 65 1015.2
20260906210227 66 332 6.0 7.0 0.00 0.00 0.00 64 1015.1
20260906205722 66 342 5.0 6.0 0.00 0.00 0.00 64 1015.4
20260906205219 67 300 9.0 11.0 0.00 0.00 0.00 63 1015.3
20260906204719 67 315 7.0 9.0 0.00 0.00 0.00 62 1015.5
20260906204218 67 304 5.0 6.0 0.00 0.00 0.00 63 1015.3
20260906203718 68 246 3.0 3.0 0.00 0.00 0.00 63 1015.3
20260906203213 67 289 6.0 7.0 0.00 0.00 0.00 63 1015.4
20260906202710 66 307 6.0 7.0 0.00 0.00 0.00 63 1015.5
20260906202208 66 256 2.0 2.0 0.00 0.00 0.00 65 1015.3
20260906201704 64 305 3.0 3.0 0.00 0.00 0.00 66 1015.3
20260906201203 66 309 7.0 8.0 0.00 0.00 0.00 64 1015.6
20260906200659 65 303 3.0 5.0 0.00 0.00 0.00 65 1015.6
20260906200155 65 352 4.0 5.0 0.00 0.00 0.00 67 1015.5
20260906195650 64 294 5.0 7.0 0.00 0.00 0.00 68 1015.6
20260906195147 63 331 8.0 9.0 0.00 0.00 0.00 68 1015.5
20260906194642 64 292 5.0 8.0 0.00 0.00 0.00 69 1015.7
20260906194137 63 271 3.0 3.0 0.00 0.00 0.00 70 1015.7
20260906193632 63 324 3.0 5.0 0.00 0.00 0.00 69 1015.8
20260906193127 63 18 3.0 3.0 0.00 0.00 0.00 69 1016.1
20260906192623 63 191 1.0 1.0 0.00 0.00 0.00 70 1015.8
20260906192122 62 227 1.0 1.0 0.00 0.00 0.00 71 1016.2
20260906191618 63 245 0.0 0.0 0.00 0.00 0.00 70 1016.2
20260906191117 62 268 4.0 5.0 0.00 0.00 0.00 71 1016.2
20260906190617 62 341 3.0 3.0 0.00 0.00 0.00 72 1016.4
20260906190112 62 13 3.0 5.0 0.00 0.00 0.00 74 1016.2
20260906185610 61 56 1.0 2.0 0.00 0.00 0.00 75 1016.4
20260906185109 61 21 4.0 5.0 0.00 0.00 0.00 75 1016.5
20260906184604 59 88 5.0 7.0 0.00 0.00 0.00 77 1016.5
20260906184100 59 86 6.0 7.0 0.00 0.00 0.00 78 1016.6
20260906183556 59 51 5.0 6.0 0.00 0.00 0.00 78 1016.7
20260906183051 58 97 5.0 5.0 0.00 0.00 0.00 79 1016.8
20260906182546 57 65 2.0 2.0 0.00 0.00 0.00 80 1016.8
20260906182042 58 77 5.0 6.0 0.00 0.00 0.00 79 1017.1
20260906181538 56 69 4.0 6.0 0.00 0.00 0.00 81 1016.9
20260906181034 56 65 5.0 7.0 0.00 0.00 0.00 81 1017.1
20260906180534 55 71 4.0 5.0 0.00 0.00 0.00 82 1017.3
20260906180033 55 51 5.0 6.0 0.00 0.00 0.00 83 1017.5
20260906175527 55 50 2.0 3.0 0.00 0.00 0.00 84 1017.6
20260906175027 55 13 4.0 6.0 0.00 0.00 0.00 83 1017.5
20260906174524 54 33 2.0 3.0 0.00 0.00 0.00 84 1017.5
20260906174020 54 57 4.0 5.0 0.00 0.00 0.00 84 1017.7
20260906173514 53 13 3.0 3.0 0.00 0.00 0.00 84 1017.8
20260906173011 53 357 4.0 5.0 0.00 0.00 0.00 85 1018.1
20260906172505 53 335 4.0 5.0 0.00 0.00 0.00 85 1018.3
20260906172000 53 288 4.0 5.0 0.00 0.00 0.00 86 1018.4
20260906171455 53 5 3.0 3.0 0.00 0.00 0.00 86 1018.3
20260906170950 53 26 1.0 2.0 0.00 0.00 0.00 86 1018.4
20260906170446 53 334 4.0 6.0 0.00 0.00 0.00 86 1018.6
20260906165943 52 299 5.0 5.0 0.00 0.00 0.00 86 1018.4
20260906165442 52 297 7.0 8.0 0.00 0.00 0.00 86 1018.7
20260906164937 53 335 9.0 10.0 0.00 0.00 0.00 86 1018.7
20260906164436 53 288 7.0 8.0 0.00 0.00 0.00 86 1018.8
20260906163933 53 311 6.0 7.0 0.00 0.00 0.00 86 1018.8
20260906163428 53 293 6.0 7.0 0.00 0.00 0.00 86 1018.9
20260906162926 53 291 7.0 8.0 0.00 0.00 0.00 86 1018.9
20260906162425 53 283 6.0 7.0 0.00 0.00 0.00 86 1018.7
20260906161921 54 277 8.0 9.0 0.00 0.00 0.00 85 1018.6
20260906161420 55 267 8.0 9.0 0.00 0.00 0.00 85 1019.2
20260906160919 54 286 8.0 9.0 0.00 0.00 0.00 85 1018.8
20260906160413 55 262 9.0 9.0 0.00 0.00 0.00 85 1018.7
20260906155911 55 290 7.0 8.0 0.00 0.00 0.00 85 1018.9
20260906155405 55 256 2.0 3.0 0.00 0.00 0.00 85 1018.9
20260906154901 55 242 3.0 3.0 0.00 0.00 0.00 84 1018.9
20260906154355 55 230 1.0 2.0 0.00 0.00 0.00 84 1018.8
20260906153854 55 203 2.0 2.0 0.00 0.00 0.00 84 1018.8
20260906153353 55 170 2.0 2.0 0.00 0.00 0.00 84 1018.9
20260906152848 55 196 3.0 3.0 0.00 0.00 0.00 84 1018.8
20260906152343 55 176 2.0 2.0 0.00 0.00 0.00 84 1018.9
20260906151842 55 174 2.0 2.0 0.00 0.00 0.00 84 1018.9
20260906151338 55 148 4.0 5.0 0.00 0.00 0.00 84 1018.9
20260906150834 55 142 4.0 5.0 0.00 0.00 0.00 84 1019.1
20260906150329 55 157 4.0 5.0 0.00 0.00 0.00 84 1018.9
20260906145828 55 166 3.0 3.0 0.00 0.00 0.00 84 1019.2
20260906145327 55 167 2.0 2.0 0.00 0.00 0.00 84 1019.1
20260906144822 55 121 3.0 3.0 0.00 0.00 0.00 84 1019.4
20260906144317 55 128 2.0 2.0 0.00 0.00 0.00 84 1019.3
20260906143816 55 142 2.0 3.0 0.00 0.00 0.00 84 1019.2
20260906143313 55 158 3.0 3.0 0.00 0.00 0.00 84 1019.4
20260906142809 55 190 2.0 2.0 0.00 0.00 0.00 84 1019.4
20260906142306 55 187 3.0 3.0 0.00 0.00 0.00 84 1019.7
20260906141803 55 183 3.0 3.0 0.00 0.00 0.00 84 1019.7
20260906141257 55 133 2.0 2.0 0.00 0.00 0.00 83 1019.6
20260906140756 55 144 3.0 3.0 0.00 0.00 0.00 83 1019.5
20260906140251 55 155 3.0 3.0 0.00 0.00 0.00 83 1019.2
20260906135749 55 176 2.0 2.0 0.00 0.00 0.00 83 1019.2
20260906135244 55 217 1.0 1.0 0.00 0.00 0.00 84 1019.4
20260906134740 55 157 1.0 1.0 0.00 0.00 0.00 84 1019.4
20260906134235 55 158 0.0 1.0 0.00 0.00 0.00 84 1019.4
20260906133730 55 110 1.0 1.0 0.00 0.00 0.00 83 1019.4
20260906133226 55 146 1.0 1.0 0.00 0.00 0.00 82 1019.5
20260906132721 55 209 1.0 1.0 0.00 0.00 0.00 82 1019.2
20260906132216 55 216 1.0 1.0 0.00 0.00 0.00 81 1019.6
20260906131712 55 177 1.0 1.0 0.00 0.00 0.00 80 1019.4
20260906131207 55 197 0.0 0.0 0.00 0.00 0.00 79 1019.2
20260906130702 55 223 1.0 1.0 0.00 0.00 0.00 79 1019.4
20260906130157 55 220 1.0 1.0 0.00 0.00 0.00 78 1019.6
20260906125655 55 201 1.0 1.0 0.00 0.00 0.00 78 1019.3
20260906125154 55 240 1.0 2.0 0.00 0.00 0.00 78 1019.3
20260906124649 55 227 2.0 2.0 0.00 0.00 0.00 78 1019.4
20260906124144 55 237 3.0 3.0 0.00 0.00 0.00 78 1019.4
20260906123643 55 238 3.0 5.0 0.00 0.00 0.00 78 1019.4
20260906123139 55 189 2.0 2.0 0.00 0.00 0.00 77 1019.5
20260906122638 55 202 1.0 1.0 0.00 0.00 0.00 77 1019.2
20260906122134 55 191 1.0 1.0 0.00 0.00 0.00 77 1019.3
20260906121630 55 203 2.0 3.0 0.00 0.00 0.00 77 1019.2
20260906121126 55 204 3.0 3.0 0.00 0.00 0.00 78 1019.1
20260906120622 54 211 1.0 2.0 0.00 0.00 0.00 78 1019.1
20260906120119 54 251 3.0 3.0 0.00 0.00 0.00 78 1018.8
20260906115618 54 224 2.0 2.0 0.00 0.00 0.00 78 1018.8
20260906115114 54 212 1.0 1.0 0.00 0.00 0.00 77 1018.8
20260906114608 54 200 3.0 3.0 0.00 0.00 0.00 78 1018.7
20260906114103 54 207 2.0 2.0 0.00 0.00 0.00 78 1018.5
20260906113603 54 218 0.0 1.0 0.00 0.00 0.00 77 1018.7
20260906113057 54 221 1.0 1.0 0.00 0.00 0.00 77 1018.6
20260906112551 54 255 1.0 1.0 0.00 0.00 0.00 77 1018.8
20260906112049 54 259 1.0 1.0 0.00 0.00 0.00 77 1018.4
20260906111548 54 312 1.0 1.0 0.00 0.00 0.00 77 1018.3
20260906111043 54 283 1.0 1.0 0.00 0.00 0.00 77 1018.5
20260906110543 54 359 1.0 1.0 0.00 0.00 0.00 77 1018.2
20260906110042 54 82 1.0 1.0 0.00 0.00 0.00 77 1018.4
20260906105537 53 76 1.0 1.0 0.00 0.00 0.00 77 1018.3
20260906105033 54 83 0.0 0.0 0.00 0.00 0.00 77 1018.2
20260906104532 53 78 0.0 1.0 0.00 0.00 0.00 77 1018.2
20260906104027 53 47 1.0 1.0 0.00 0.00 0.00 77 1018.5
20260906103525 53 86 1.0 1.0 0.00 0.00 0.00 77 1018.6
20260906103020 53 90 1.0 1.0 0.00 0.00 0.00 77 1018.5
20260906102520 53 121 0.0 0.0 0.00 0.00 0.00 77 1018.6
20260906102015 53 125 0.0 0.0 0.00 0.00 0.00 77 1018.7
20260906101509 53 128 0.0 0.0 0.00 0.00 0.00 77 1018.4
20260906101004 53 129 0.0 0.0 0.00 0.00 0.00 77 1018.5
20260906100500 53 129 0.0 0.0 0.00 0.00 0.00 77 1018.7
20260906095954 53 107 0.0 0.0 0.00 0.00 0.00 77 1018.5
20260906095449 53 88 0.0 1.0 0.00 0.00 0.00 77 1018.3
20260906094944 53 63 1.0 1.0 0.00 0.00 0.00 77 1018.4
20260906094438 53 59 1.0 1.0 0.00 0.00 0.00 77 1018.5
20260906093934 53 153 0.0 1.0 0.00 0.00 0.00 77 1018.3
20260906093430 53 184 0.0 0.0 0.00 0.00 0.00 77 1018.4
20260906092930 53 168 1.0 1.0 0.00 0.00 0.00 78 1018.5
20260906092430 52 169 2.0 2.0 0.00 0.00 0.00 79 1018.4
20260906091925 51 135 0.0 1.0 0.00 0.00 0.00 79 1018.5
20260906091421 52 105 0.0 0.0 0.00 0.00 0.00 79 1018.2
20260906090917 52 100 0.0 0.0 0.00 0.00 0.00 78 1018.3
20260906090412 53 100 1.0 1.0 0.00 0.00 0.00 78 1018.6
20260906085906 52 212 1.0 1.0 0.00 0.00 0.00 78 1018.5
20260906085400 53 228 1.0 1.0 0.00 0.00 0.00 77 1018.5
20260906084900 53 186 2.0 2.0 0.00 0.00 0.00 77 1018.5
20260906084354 53 151 5.0 6.0 0.00 0.00 0.00 77 1018.5
20260906083848 53 155 3.0 3.0 0.00 0.00 0.00 77 1018.6
20260906083344 54 143 3.0 5.0 0.00 0.00 0.00 77 1018.5
20260906082843 53 143 4.0 5.0 0.00 0.00 0.00 77 1018.7
20260906082338 53 143 5.0 6.0 0.00 0.00 0.00 77 1018.6
20260906081835 53 144 3.0 3.0 0.00 0.00 0.00 77 1018.7
20260906081330 53 142 4.0 5.0 0.00 0.00 0.00 77 1018.8
20260906080826 53 150 4.0 5.0 0.00 0.00 0.00 78 1019.1
20260906080322 52 140 5.0 6.0 0.00 0.00 0.00 78 1019.1
20260906075821 52 163 5.0 6.0 0.00 0.00 0.00 77 1019.1
20260906075316 52 123 5.0 6.0 0.00 0.00 0.00 77 1019.1
20260906074811 52 129 7.0 7.0 0.00 0.00 0.00 78 1019.2
20260906074311 53 151 4.0 5.0 0.00 0.00 0.00 77 1019.4
20260906073810 53 162 1.0 1.0 0.00 0.00 0.00 77 1019.7
20260906073305 54 190 3.0 3.0 0.00 0.00 0.00 76 1019.8
20260906072801 54 223 3.0 3.0 0.00 0.00 0.00 76 1020.1
20260906072257 54 213 3.0 3.0 0.00 0.00 0.00 76 1019.9
20260906071752 54 216 2.0 2.0 0.00 0.00 0.00 76 1020.1
20260906071252 54 192 1.0 1.0 0.00 0.00 0.00 76 1020.1
20260906070749 54 203 2.0 2.0 0.00 0.00 0.00 75 1019.9
20260906070244 53 208 1.0 1.0 0.00 0.00 0.00 74 1019.9
20260906065744 53 197 1.0 1.0 0.00 0.00 0.00 73 1020.1
20260906065239 53 202 2.0 2.0 0.00 0.00 0.00 73 1020.2
20260906064735 53 209 2.0 2.0 0.00 0.00 0.00 73 1020.1
20260906064230 53 208 1.0 1.0 0.00 0.00 0.00 72 1020.1
20260906063725 54 223 1.0 1.0 0.00 0.00 0.00 72 1020.2
20260906063221 53 214 1.0 2.0 0.00 0.00 0.00 72 1020.2
20260906062716 53 237 1.0 1.0 0.00 0.00 0.00 72 1019.9
20260906062215 54 232 1.0 2.0 0.00 0.00 0.00 72 1020.3
20260906061711 54 203 1.0 1.0 0.00 0.00 0.00 72 1020.1
20260906061207 54 209 1.0 1.0 0.00 0.00 0.00 72 1020.3
20260906060703 54 227 0.0 1.0 0.00 0.00 0.00 71 1020.2
20260906060200 54 232 1.0 2.0 0.00 0.00 0.00 71 1020.3
20260906055655 54 264 2.0 2.0 0.00 0.00 0.00 71 1020.3
20260906055150 54 268 3.0 3.0 0.00 0.00 0.00 71 1020.5
20260906054646 55 264 3.0 3.0 0.00 0.00 0.00 71 1020.4
20260906054140 55 257 3.0 3.0 0.00 0.00 0.00 71 1020.4
20260906053638 55 259 4.0 5.0 0.00 0.00 0.00 70 1020.2
20260906053138 55 267 5.0 5.0 0.00 0.00 0.00 70 1020.1
20260906052633 55 233 5.0 7.0 0.00 0.00 0.00 70 1019.9
20260906052130 56 259 3.0 3.0 0.00 0.00 0.00 69 1019.7
20260906051626 57 328 3.0 3.0 0.00 0.00 0.00 68 1019.7
20260906051126 57 325 4.0 5.0 0.00 0.00 0.00 67 1019.7
20260906050621 58 350 5.0 6.0 0.00 0.00 0.00 67 1019.5
20260906050116 58 348 4.0 5.0 0.00 0.00 0.00 66 1019.6
20260906045614 58 354 5.0 6.0 0.00 0.00 0.00 66 1019.6
20260906045110 58 354 3.0 3.0 0.00 0.00 0.00 66 1019.5
20260906044606 59 1 4.0 5.0 0.00 0.00 0.00 65 1019.6
20260906044101 59 1 6.0 8.0 0.00 0.00 0.00 64 1019.4
20260906043557 59 11 7.0 8.0 0.00 0.00 0.00 63 1019.1
20260906043053 59 24 4.0 5.0 0.00 0.00 0.00 63 1019.2
20260906042551 60 29 4.0 5.0 0.00 0.00 0.00 63 1018.9
20260906042046 60 55 4.0 6.0 0.00 0.00 0.00 62 1018.9
20260906041543 60 34 8.0 9.0 0.00 0.00 0.00 62 1018.7
20260906041037 60 58 5.0 6.0 0.00 0.00 0.00 61 1018.5
20260906040532 60 23 4.0 6.0 0.00 0.00 0.00 60 1018.7
20260906040028 61 24 7.0 10.0 0.00 0.00 0.00 59 1018.5
20260906035522 61 43 10.0 14.0 0.00 0.00 0.00 58 1018.3
20260906035019 62 42 16.0 20.0 0.00 0.00 0.00 57 1017.9
20260906034518 62 52 9.0 11.0 0.00 0.00 0.00 57 1018.1
20260906034014 62 24 11.0 16.0 0.00 0.00 0.00 56 1018.1
20260906033508 62 50 10.0 13.0 0.00 0.00 0.00 54 1018.1
20260906033004 63 41 8.0 11.0 0.00 0.00 0.00 53 1018.2
20260906032501 64 352 10.0 15.0 0.00 0.00 0.00 50 1017.8
20260906032000 66 21 11.0 15.0 0.00 0.00 0.00 47 1017.5
20260906031456 66 359 11.0 14.0 0.00 0.00 0.00 43 1017.6
20260906030951 67 43 6.0 8.0 0.00 0.00 0.00 41 1017.4
20260906030446 67 47 4.0 5.0 0.00 0.00 0.00 41 1017.4
20260906025940 67 35 1.0 1.0 0.00 0.00 0.00 40 1017.3
20260906025434 68 29 4.0 5.0 0.00 0.00 0.00 39 1016.9
20260906024933 69 38 3.0 3.0 0.00 0.00 0.00 39 1016.8
20260906024432 68 61 4.0 5.0 0.00 0.00 0.00 39 1017.1
20260906023927 69 63 3.0 3.0 0.00 0.00 0.00 38 1016.9
20260906023424 69 74 8.0 9.0 0.00 0.00 0.00 37 1016.8
20260906022924 69 80 8.0 13.0 0.00 0.00 0.00 37 1016.9
20260906022419 69 48 10.0 11.0 0.00 0.00 0.00 36 1016.7
20260906021915 69 37 7.0 8.0 0.00 0.00 0.00 37 1016.7
20260906021414 70 42 11.0 13.0 0.00 0.00 0.00 36 1016.5
20260906020908 70 57 11.0 13.0 0.00 0.00 0.00 36 1016.4
20260906020403 70 30 10.0 13.0 0.00 0.00 0.00 36 1016.4
20260906015857 70 42 5.0 8.0 0.00 0.00 0.00 36 1016.5
20260906015357 70 47 10.0 11.0 0.00 0.00 0.00 36 1016.4
20260906014857 71 69 12.0 14.0 0.00 0.00 0.00 35 1016.7
20260906014356 71 51 9.0 11.0 0.00 0.00 0.00 35 1016.4
20260906013853 71 44 8.0 9.0 0.00 0.00 0.00 35 1016.5
20260906013348 71 79 5.0 7.0 0.00 0.00 0.00 35 1016.3
20260906012844 72 37 9.0 11.0 0.00 0.00 0.00 34 1016.2
20260906012339 72 51 10.0 13.0 0.00 0.00 0.00 33 1016.1
20260906011838 72 47 7.0 8.0 0.00 0.00 0.00 33 1016.2
20260906011333 73 43 7.0 9.0 0.00 0.00 0.00 32 1016.2
20260906010829 73 24 7.0 8.0 0.00 0.00 0.00 31 1016.3
20260906010325 74 18 9.0 11.0 0.00 0.00 0.00 31 1016.3
20260906005820 74 17 9.0 11.0 0.00 0.00 0.00 31 1016.3
20260906005319 74 34 7.0 7.0 0.00 0.00 0.00 31 1016.5
20260906004818 74 25 7.0 9.0 0.00 0.00 0.00 31 1016.3
20260906004318 74 60 8.0 13.0 0.00 0.00 0.00 30 1016.3
20260906003813 74 43 8.0 10.0 0.00 0.00 0.00 30 1015.9
20260906003309 74 30 11.0 13.0 0.00 0.00 0.00 30 1016.5
20260906002804 75 39 12.0 14.0 0.00 0.00 0.00 30 1016.3
20260906002306 75 32 12.0 14.0 0.00 0.00 0.00 30 1016.4
20260906001800 75 61 7.0 10.0 0.00 0.00 0.00 30 1016.4
20260906001254 75 25 10.0 11.0 0.00 0.00 0.00 29 1016.5
20260906000749 75 35 10.0 14.0 0.00 0.00 0.00 30 1016.5
20260906000244 75 22 10.0 13.0 0.00 0.00 0.00 29 1016.7
20260905235739 75 15 11.0 13.0 0.00 0.00 0.00 29 1016.5
20260905235238 75 2 10.0 13.0 0.00 0.00 0.00 29 1016.6
20260905234734 75 26 9.0 11.0 0.00 0.00 0.00 29 1016.4
20260905234229 75 25 7.0 8.0 0.00 0.00 0.00 29 1016.6
20260905233725 76 35 9.0 11.0 0.00 0.00 0.00 29 1016.7
20260905233224 75 19 10.0 13.0 0.00 0.00 0.00 29 1016.4
20260905232719 75 15 13.0 16.0 0.00 0.00 0.00 29 1016.6
20260905232214 75 26 9.0 11.0 0.00 0.00 0.00 30 1016.4
20260905231710 75 52 10.0 11.0 0.00 0.00 0.00 30 1016.2
20260905231206 75 64 7.0 9.0 0.00 0.00 0.00 30 1016.4
20260905230702 75 17 11.0 13.0 0.00 0.00 0.00 30 1016.5
20260905230159 75 19 9.0 10.0 0.00 0.00 0.00 30 1016.6
20260905225659 75 26 9.0 10.0 0.00 0.00 0.00 31 1016.6
20260905225154 75 29 7.0 10.0 0.00 0.00 0.00 30 1016.7